Weather History for Vero Beach, FL

Change the Weather History Date:

Friday, January 17, 2014

  Actual Average Record
Temperature  
Mean Temperature 50 °F 62 °F  
Max Temperature 64 °F 72 °F 85 °F (1987)
Min Temperature 35 °F 51 °F 31 °F (1965)
Degree Days  
Heating Degree Days 15 5  
Month to date heating degree days 76 85  
Since 1 July heating degree days 105 220  
Cooling Degree Days 0 2  
Month to date cooling degree days 53 34  
Year to date cooling degree days 53 34  
Moisture  
Dew Point 32 °F    
Average Humidity 56    
Maximum Humidity 92    
Minimum Humidity 19    
Precipitation  
Precipitation 0.00 in 0.08 in 0.22 in (1963)
Month to date precipitation 3.12 1.37  
Year to date precipitation 3.12 1.37  
Sea Level Pressure  
Sea Level Pressure 30.16 in    
Wind  
Wind Speed 4 mph (WNW)    
Max Wind Speed 9 mph    
Max Gust Speed 16 mph    
Visibility 10 miles    
Events      
T = Trace of Precipitation, MM = Missing Value Source: NWS Daily Summary

Daily Weather History Graph

Daily Weather History Graph

Search for Another Location

Airport:

Trip Planner

Search our weather history database for the weather conditions in past years. The results will help you decide how hot, cold, wet, or windy it might be!

Date:

Astronomy

Jan. 17, 2014 Rise Set
Actual Time 7:13 AM EST 5:50 PM EST
Civil Twilight 6:48 AM EST 6:15 PM EST
Nautical Twilight 6:19 AM EST 6:44 PM EST
Astronomical Twilight 5:51 AM EST 7:12 PM EST
Moon 7:22 PM EST (1/17) 7:51 AM EST (1/17)
Length of Visible Light 11h 27m
Length of Day
10h 37m
Full, 98% of the Moon is Illuminated
Jan 17
Full
Jan 24
Last Quarter
Jan 30
New
Feb 6
First Quarter
Feb 14
Full

Hourly Weather History & Observations

Time (EST) Temp. Windchill Dew Point Humidity Pressure Visibility Wind Dir Wind Speed Gust Speed Precip Events Conditions
12:53 AM 39.9 °F 34.5 °F 32.0 °F 73% 30.16 in 10.0 mi WNW 8.1 mph - N/A   Clear
1:53 AM 37.9 °F 33.5 °F 30.9 °F 76% 30.16 in 10.0 mi WNW 5.8 mph - N/A   Clear
2:53 AM 37.0 °F 34.5 °F 32.0 °F 82% 30.15 in 10.0 mi West 3.5 mph - N/A   Clear
3:53 AM 37.0 °F 34.5 °F 32.0 °F 82% 30.15 in 10.0 mi WNW 3.5 mph - N/A   Clear
4:53 AM 36.0 °F - 33.1 °F 89% 30.15 in 10.0 mi Calm Calm - N/A   Clear
5:53 AM 36.0 °F 33.3 °F 32.0 °F 86% 30.17 in 10.0 mi WNW 3.5 mph - N/A   Clear
6:53 AM 37.0 °F 32.4 °F 32.0 °F 82% 30.18 in 10.0 mi NW 5.8 mph - N/A   Clear
7:53 AM 37.0 °F 33.3 °F 34.0 °F 89% 30.19 in 10.0 mi West 4.6 mph - N/A   Clear
8:53 AM 45.0 °F 41.2 °F 35.1 °F 68% 30.21 in 10.0 mi NW 6.9 mph - N/A   Clear
9:53 AM 51.1 °F - 34.0 °F 52% 30.23 in 10.0 mi NW 8.1 mph - N/A   Clear
10:53 AM 55.9 °F - 32.0 °F 40% 30.23 in 10.0 mi NW 5.8 mph - N/A   Clear
11:53 AM 59.0 °F - 30.0 °F 33% 30.20 in 10.0 mi Calm Calm - N/A   Clear
12:53 PM 60.1 °F - 27.0 °F 28% 30.17 in 10.0 mi SSW 3.5 mph - N/A   Clear
1:53 PM 62.1 °F - 19.0 °F 19% 30.14 in 10.0 mi WSW 3.5 mph - N/A   Clear
2:53 PM 63.0 °F - 21.0 °F 20% 30.13 in 10.0 mi West 4.6 mph - N/A   Clear
3:53 PM 64.0 °F - 21.9 °F 20% 30.12 in 10.0 mi West 5.8 mph - N/A   Clear
4:53 PM 61.0 °F - 25.0 °F 25% 30.13 in 10.0 mi WNW 4.6 mph - N/A   Clear
5:53 PM 57.0 °F - 33.1 °F 40% 30.13 in 10.0 mi Calm Calm - N/A   Clear
6:53 PM 48.0 °F - 37.9 °F 68% 30.14 in 10.0 mi WNW 3.5 mph - N/A   Clear
7:53 PM 48.0 °F - 37.0 °F 66% 30.15 in 10.0 mi West 3.5 mph - N/A   Clear
8:53 PM 48.9 °F - 34.0 °F 56% 30.16 in 10.0 mi Calm Calm - N/A   Clear
9:53 PM 46.9 °F - 39.0 °F 74% 30.17 in 10.0 mi Calm Calm - N/A   Clear
10:53 PM 43.0 °F 41.3 °F 37.0 °F 80% 30.17 in 10.0 mi West 3.5 mph - N/A   Clear
11:53 PM 46.0 °F 43.9 °F 37.0 °F 71% 30.16 in 10.0 mi WSW 4.6 mph - N/A   Clear